Weather History for KBLF - January, 2014

Change the Weather History Date:

Friday, January 24, 2014

  Actual Average Record
Temperature  
Mean Temperature 11 °F 34 °F  
Max Temperature 24 °F 42 °F 67 °F (1972)
Min Temperature -3 °F 26 °F -18 °F (1963)
Degree Days  
Heating Degree Days 54 31  
Month to date heating degree days 826 744  
Since 1 July heating degree days 2523 2509  
Cooling Degree Days 0 0  
Month to date cooling degree days 0 0  
Year to date cooling degree days 0 0  
Moisture  
Dew Point -9 °F    
Average Humidity 48    
Maximum Humidity 72    
Minimum Humidity 23    
Precipitation  
Precipitation T in 0.09 in 0.87 in (2010)
Month to date precipitation 1.53 2.26  
Year to date precipitation 1.53 2.26  
Snow  
Snow 0.10 in - - ()
Month to date snowfall 11.0  
Since 1 July snowfall 15.3  
Snow Depth 5.00 in    
Sea Level Pressure  
Sea Level Pressure 30.38 in    
Wind  
Wind Speed 8 mph (WSW)    
Max Wind Speed 17 mph    
Max Gust Speed 25 mph    
Visibility 8 miles    
Events Snow    
T = Trace of Precipitation, MM = Missing Value Source: NWS Daily Summary

Daily Weather History Graph

Daily Weather History Graph

Search for Another Location

Airport or City:

Trip Planner

Search our weather history database for the weather conditions in past years. The results will help you decide how hot, cold, wet, or windy it might be!

Date:

Astronomy

Jan. 24, 2014 Rise Set
Actual Time 7:33 AM EST 5:40 PM EST
Civil Twilight 7:05 AM EST 6:08 PM EST
Nautical Twilight 6:34 AM EST 6:40 PM EST
Astronomical Twilight 6:03 AM EST 7:11 PM EST
Moon 1:01 AM EST (1/24) 11:57 AM EST (1/24)
Length of Visible Light 11h 02m
Length of Day
10h 06m
Last Quarter, 45% of the Moon is Illuminated
Jan 24
Last Quarter
Jan 30
New
Feb 6
First Quarter
Feb 14
Full
Feb 22
Last Quarter

Hourly Weather History & Observations

Time (EST) Temp. Windchill Dew Point Humidity Pressure Visibility Wind Dir Wind Speed Gust Speed Precip Events Conditions
12:39 AM -0.4 °F -14.7 °F -7.6 °F 72% 30.33 in 10.0 mi WNW 8.1 mph - 0.00 in   Scattered Clouds
12:52 AM -0.0 °F -15.3 °F -9.0 °F 66% 30.49 in 10.0 mi WNW 9.2 mph - 0.00 in   Partly Cloudy
1:30 AM -0.4 °F -14.7 °F -9.4 °F 66% 30.32 in 10.0 mi West 8.1 mph - N/A   Scattered Clouds
1:52 AM -0.9 °F -16.4 °F -8.0 °F 72% 30.51 in 10.0 mi West 9.2 mph - N/A   Scattered Clouds
2:00 AM -0.4 °F -14.7 °F -9.4 °F 66% 30.34 in 7.0 mi West 8.1 mph - N/A   Mostly Cloudy
2:29 AM -0.4 °F -16.7 °F -7.6 °F 72% 30.35 in 2.5 mi West 10.4 mph - 0.00 in Snow Light Snow
2:41 AM -0.4 °F -15.7 °F -7.6 °F 72% 30.35 in 3.0 mi West 9.2 mph - 0.00 in Snow Light Snow
2:52 AM -0.9 °F -16.4 °F -8.0 °F 72% 30.53 in 4.0 mi West 9.2 mph 18.4 mph 0.00 in Snow Light Snow
3:11 AM -0.4 °F -15.7 °F -7.6 °F 72% 30.36 in 4.0 mi West 9.2 mph - 0.00 in Snow Light Snow
3:52 AM -2.0 °F -19.6 °F -9.0 °F 72% 30.54 in 6.0 mi West 11.5 mph - 0.00 in   Haze
4:36 AM -2.2 °F -19.9 °F -9.4 °F 71% 30.37 in 10.0 mi WNW 11.5 mph - N/A   Overcast
4:52 AM -2.0 °F -19.6 °F -9.0 °F 72% 30.55 in 8.0 mi West 11.5 mph - N/A   Overcast
5:08 AM -2.2 °F -18.9 °F -9.4 °F 71% 30.37 in 7.0 mi WNW 10.4 mph - N/A   Overcast
5:52 AM -2.0 °F -17.7 °F -9.0 °F 72% 30.56 in 5.0 mi WNW 9.2 mph - N/A   Haze
6:23 AM -2.2 °F -20.7 °F -9.4 °F 71% 30.37 in 3.0 mi West 12.7 mph 18.4 mph N/A   Haze
6:52 AM -2.0 °F -15.4 °F -9.0 °F 72% 30.56 in 4.0 mi West 6.9 mph - N/A   Haze
7:43 AM -2.2 °F -12.5 °F -9.4 °F 71% 30.37 in 2.0 mi WSW 4.6 mph - N/A   Haze
7:52 AM -2.0 °F -10.1 °F -9.0 °F 72% 30.57 in 2.5 mi WSW 3.5 mph - N/A   Haze
8:02 AM -2.2 °F -14.2 °F -9.4 °F 71% 30.37 in 4.0 mi West 5.8 mph - N/A   Haze
8:52 AM -0.0 °F -7.9 °F -8.0 °F 69% 30.54 in 7.0 mi WSW 3.5 mph - N/A   Overcast
9:04 AM -0.4 °F -8.3 °F -7.6 °F 72% 30.35 in 10.0 mi SW 3.5 mph - N/A   Scattered Clouds
9:52 AM 1.9 °F -7.6 °F -8.0 °F 63% 30.54 in 10.0 mi SW 4.6 mph - N/A   Clear
10:52 AM 6.1 °F -4.3 °F -8.0 °F 53% 30.54 in 10.0 mi WSW 5.8 mph - N/A   Clear
11:52 AM 10.9 °F 1.4 °F -8.0 °F 42% 30.51 in 10.0 mi SW 5.8 mph - N/A   Clear
12:52 PM 14.0 °F -0.2 °F -8.0 °F 37% 30.48 in 10.0 mi SW 12.7 mph 17.3 mph N/A   Clear
1:52 PM 15.1 °F 1.1 °F -7.1 °F 37% 30.43 in 10.0 mi WSW 12.7 mph - N/A   Clear
2:52 PM 17.1 °F 5.0 °F -6.0 °F 36% 30.37 in 10.0 mi WSW 10.4 mph - N/A   Clear
3:52 PM 18.0 °F 6.1 °F -5.1 °F 36% 30.34 in 10.0 mi West 10.4 mph - N/A   Clear
4:52 PM 18.0 °F 8.7 °F -5.1 °F 36% 30.30 in 10.0 mi SW 6.9 mph - N/A   Clear
5:52 PM 16.0 °F 5.3 °F -7.1 °F 36% 30.29 in 10.0 mi WSW 8.1 mph - N/A   Clear
6:52 PM 16.0 °F 7.4 °F -11.9 °F 28% 30.25 in 10.0 mi SSW 5.8 mph - N/A   Clear
7:52 PM 16.0 °F 6.3 °F -11.9 °F 28% 30.21 in 10.0 mi SSW 6.9 mph - N/A   Clear
8:52 PM 18.0 °F 12.7 °F -14.1 °F 23% 30.16 in 10.0 mi SSW 3.5 mph - N/A   Clear
9:52 PM 19.9 °F 13.4 °F -11.9 °F 24% 30.12 in 10.0 mi SW 4.6 mph - N/A   Clear
10:52 PM 19.9 °F 9.3 °F -13.0 °F 23% 30.08 in 10.0 mi WSW 9.2 mph - N/A   Clear
11:52 PM 24.1 °F 12.0 °F -9.0 °F 23% 30.01 in 10.0 mi WSW 13.8 mph - N/A   Clear